Kuchera_Ratio
3.8 2.3 2.2 2.0 2.4 1.9 1.7 1.9 1.2 0.0 0.0 0.0 0.0 0.0 0.0 0.0 0.0 0.0 0.0 0.0 0.0 0.0 0.0 0.0 0.0 0.0 0.0
4.8 5.2 5.5 4.6 4.4 5.2 3.5 0.4 2.7 0.0 0.0 0.0 0.0 0.0 0.0 0.0 0.0 0.0 0.0 0.0 0.0 0.0 0.0 0.0 0.0 0.0 0.0
7.1 6.8 7.2 7.1 6.9 6.7 6.2 6.3 3.2 0.0 0.0 0.0 0.0 0.0 0.0 0.0 0.0 0.0 0.0 0.0 0.0 0.0 0.0 0.0 0.0 0.0 0.0
9.6 9.4 9.5 8.1 9.2 10.4 9.9 7.7 7.5 2.9 0.1 0.0 0.0 0.0 0.0 0.0 0.0 0.0 0.0 0.0 0.0 0.0 0.0 0.0 0.0 0.0 0.0
10.3 10.7 10.2 9.8 10.4 9.3 11.2 9.8 9.8 8.2 8.5 7.2 6.9 5.8 4.6 1.3 0.0 0.0 0.0 0.0 0.0 0.0 0.0 0.0 0.0 0.0 0.0
9.7 11.6 10.3 10.1 9.5 10.4 11.6 12.9 13.2 7.7 10.2 8.2 7.6 8.4 7.9 7.1 1.0 0.0 0.0 0.0 0.0 0.0 0.0 0.0 0.0 0.0 0.0
8.1 9.6 9.0 8.6 7.9 10.0 11.4 12.3 12.3 9.5 10.6 10.4 7.6 9.4 7.1 4.8 0.0 0.0 0.0 0.0 0.0 0.0 0.0 0.0 0.0 0.0 0.0
4.9 5.1 5.6 5.0 6.5 7.3 8.3 10.4 11.1 7.0 6.3 11.9 9.1 10.4 9.7 8.5 0.8 0.0 0.0 0.0 0.0 0.0 0.0 0.0 0.0 0.0 0.0
0.0 0.0 0.0 0.0 3.3 9.2 12.1 11.2 10.4 7.8 7.0 10.1 11.4 12.4 11.3 10.5 8.6 2.3 0.6 0.0 0.0 0.0 0.0 0.0 0.0 0.0 0.3
6.4 3.0 0.0 0.0 0.0 0.1 5.9 12.0 9.3 10.8 8.2 13.0 13.5 12.9 14.2 11.1 12.4 10.7 9.6 3.2 0.8 0.7 0.0 0.0 0.0 4.0 8.7
8.6 8.1 6.9 6.5 6.4 5.1 6.3 8.4 10.2 10.2 9.2 11.1 13.8 13.5 13.4 13.3 12.6 12.3 12.0 11.0 10.7 8.9 3.8 2.5 1.6 2.5 8.9
9.6 11.0 9.7 8.3 7.2 6.9 6.6 8.4 7.2 7.6 6.1 8.2 13.1 13.9 15.1 14.5 14.3 12.6 13.1 12.9 12.8 12.5 11.8 7.7 4.4 2.7 1.7
9.3 7.9 8.2 6.4 6.5 8.0 8.7 10.2 11.1 11.1 8.6 11.2 13.0 13.7 14.4 14.7 14.6 13.6 13.4 13.5 13.7 13.9 13.9 13.1 12.8 12.2 13.7
9.5 9.3 9.0 9.9 9.5 9.6 12.1 12.9 13.6 12.9 11.8 11.3 12.5 13.5 14.4 13.7 14.0 14.7 13.2 15.0 14.5 14.5 13.9 13.4 12.5 11.9 12.5
9.8 9.3 10.3 10.4 11.4 11.4 12.7 14.0 14.8 14.5 14.6 13.5 13.0 12.6 13.4 14.2 15.4 14.1 13.8 13.6 13.2 13.5 13.6 13.8 12.4 12.2 12.2
9.7 10.0 11.8 12.1 12.6 13.0 13.7 14.4 15.1 14.2 15.4 15.3 15.3 16.7 15.7 14.6 11.8 14.7 14.1 14.1 13.5 13.6 13.5 14.9 14.1 12.3 10.8
11.1 11.5 12.1 12.8 12.3 14.1 14.3 14.6 14.9 15.0 15.8 15.7 16.9 18.0 18.5 19.4 14.8 6.4 15.2 14.9 14.8 14.9 14.1 14.4 14.9 13.5 12.0